This is the latest recevied weather packets stored in our database for station/object DH1FR-13. If no packets are shown the sender has not sent any weather packets the latest 10 day(s).
| Time | Temp. | Humidity | Pressure | Rain* | Wind** | Luminosity | Snow |
|---|---|---|---|---|---|---|---|
| 1787816401 | 18.33° C | 88% | 1018.2 hPa | 0 mm | 0 m/s | - | - |
| 1787815801 | 18.33° C | 89% | 1018.3 hPa | 0 mm | 0 m/s | - | - |
| 1787815200 | 18.33° C | 89% | 1018.6 hPa | 0 mm | 0 m/s | - | - |
| 1787814600 | 17.78° C | 90% | 1018.8 hPa | 0 mm | 0 m/s | - | - |
| 1787814000 | 17.22° C | 91% | 1018.7 hPa | 0 mm | 0 m/s | - | - |
| 1787813400 | 17.22° C | 92% | 1018.7 hPa | 0 mm | 0 m/s | - | - |
| 1787812800 | 16.11° C | 95% | 1018.2 hPa | 0 mm | 0 m/s | - | - |
| 1787812200 | 16.11° C | 96% | 1018.4 hPa | 0 mm | 0 m/s | - | - |
| 1787811600 | 16.11° C | 97% | 1018.3 hPa | 0 mm | 0 m/s | - | - |
| 1787811000 | 15° C | 99% | 1018.5 hPa | 0 mm | 0 m/s | - | - |
| 1787810400 | 15° C | 99% | 1018.5 hPa | 0 mm | 0 m/s | - | - |
| 1787809801 | 15° C | 99% | 1018.5 hPa | 0 mm | 0 m/s | - | - |
| 1787809200 | 14.44° C | 99% | 1018.1 hPa | 0 mm | 0 m/s | - | - |
| 1787808601 | 14.44° C | 99% | 1018.5 hPa | 0 mm | 0 m/s | - | - |
| 1787808000 | 14.44° C | 99% | 1018.7 hPa | 0 mm | 0 m/s | - | - |
| 1787807401 | 14.44° C | 99% | 1018.6 hPa | 0 mm | 0 m/s | - | - |
| 1787806801 | 14.44° C | 99% | 1018.5 hPa | 0 mm | 0 m/s | - | - |
| 1787806201 | 13.89° C | 99% | 1018.6 hPa | 0 mm | 0 m/s | - | - |
| 1787805600 | 14.44° C | 99% | 1018.7 hPa | 0 mm | 0 m/s | - | - |
| 1787805000 | 14.44° C | 99% | 1018.3 hPa | 0 mm | 0 m/s | - | - |
| 1787804401 | 14.44° C | 99% | 1018.5 hPa | 0 mm | 0 m/s | - | - |
| 1787803801 | 14.44° C | 99% | 1018.3 hPa | 0 mm | 0 m/s | - | - |
| 1787803201 | 14.44° C | 99% | 1018.4 hPa | 0 mm | 0 m/s | - | - |
| 1787802601 | 14.44° C | 99% | 1018.4 hPa | 0 mm | 0 m/s | - | - |
| 1787802001 | 14.44° C | 99% | 1018.2 hPa | 0 mm | 0 m/s | - | - |
* Rain latest hour (hover to see other rain measurements)
** Current wind speed in m/s (hover to see current wind gust speed)